Muscle Shoals, AL

11:20 PM CDT on July 26, 2017 (GMT -0500)
Northwest Alabama Regional

Weather History for KMSL - January, 2013

Change the Weather History Date:

Tuesday, January 1, 2013

  Actual Average Record
Temperature  
Mean Temperature 46 °F 41 °F  
Max Temperature 52 °F 50 °F 77 °F (1952)
Min Temperature 40 °F 32 °F 7 °F (1928)
Degree Days  
Heating Degree Days 19 24  
Month to date heating degree days 19 24  
Since 1 July heating degree days 1117 1260  
Cooling Degree Days 0 0  
Month to date cooling degree days 0 0  
Year to date cooling degree days 0 0  
Moisture  
Dew Point 43 °F    
Average Humidity 86    
Maximum Humidity 93    
Minimum Humidity 79    
Precipitation  
Precipitation 1.11 in 0.15 in 2.12 in (1947)
Month to date precipitation 1.11 0.15  
Year to date precipitation 1.11 0.15  
Snow  
Snow 0.00 in - - ()
Since 1 July snowfall T  
Snow Depth 0.00 in    
Sea Level Pressure  
Sea Level Pressure 30.06 in    
Wind  
Wind Speed 5 mph (North)    
Max Wind Speed 14 mph    
Max Gust Speed 20 mph    
Visibility 7 miles    
Events Rain    
T = Trace of Precipitation, MM = Missing Value Source: NWS Daily Summary

Daily Weather History Graph

Daily Weather History Graph

Search for Another Location

Airport or City:

Trip Planner

Search our weather history database for the weather conditions in past years. The results will help you decide how hot, cold, wet, or windy it might be!

Date:

Astronomy

Jan. 01, 2013 Rise Set
Actual Time 6:57 AM CST 4:50 PM CST
Civil Twilight 6:29 AM CST 5:18 PM CST
Nautical Twilight 5:58 AM CST 5:50 PM CST
Astronomical Twilight 5:27 AM CST 6:20 PM CST
Moon 9:09 PM CST (1/1) 9:20 AM CST (1/1)
Length of Visible Light 10h 48m
Length of Day
9h 52m
Waning Gibbous, 83% of the Moon is Illuminated
Jan 1
Waning Gibbous
Jan 4
Last Quarter
Jan 11
New
Jan 18
First Quarter
Jan 26
Full

Hourly Weather History & Observations

Time (CST) Temp. Windchill Dew Point Humidity Pressure Visibility Wind Dir Wind Speed Gust Speed Precip Events Conditions
12:45 AM 51.8 °F - 46.4 °F 82% 30.03 in 7.0 mi WNW 3.5 mph - 0.02 in Rain Light Rain
12:53 AM 51.1 °F - 46.9 °F 86% 30.03 in 4.0 mi Calm Calm - 0.04 in Rain Rain
1:27 AM 51.8 °F - 48.2 °F 88% 30.05 in 4.0 mi NNW 4.6 mph - 0.06 in Rain Rain
1:53 AM 50.0 °F - 46.9 °F 89% 30.06 in 7.0 mi NNW 5.8 mph - 0.08 in Rain Light Rain
2:15 AM 48.2 °F - 44.6 °F 87% 30.07 in 6.0 mi NNW 8.1 mph - 0.02 in Rain Rain
2:48 AM 46.4 °F 44.3 °F 44.6 °F 93% 30.07 in 6.0 mi North 4.6 mph - 0.08 in Rain Rain
2:53 AM 46.9 °F - 43.0 °F 86% 30.08 in 5.0 mi North 4.6 mph - 0.09 in Rain Rain
3:02 AM 46.4 °F 45.2 °F 42.8 °F 87% 30.08 in 5.0 mi North 3.5 mph - 0.02 in Rain Rain
3:29 AM 46.4 °F 41.9 °F 42.8 °F 87% 30.06 in 5.0 mi SSE 9.2 mph - 0.08 in Rain Rain
3:53 AM 46.0 °F 44.8 °F 44.1 °F 93% 30.06 in 4.0 mi SSE 3.5 mph - 0.16 in Rain Rain
4:42 AM 46.4 °F - 44.6 °F 93% 30.05 in 5.0 mi Calm Calm - 0.12 in Rain Rain
5:10 AM 46.4 °F 45.2 °F 44.6 °F 93% 30.04 in 4.0 mi ESE 3.5 mph - 0.04 in Rain Rain
5:53 AM 46.9 °F - 44.1 °F 90% 30.04 in 4.0 mi SE 5.8 mph - 0.13 in Rain Rain
6:25 AM 46.4 °F 43.5 °F 44.6 °F 93% 30.07 in 6.0 mi WSW 5.8 mph - 0.06 in Rain Light Rain
6:45 AM 46.4 °F - 44.6 °F 93% 30.05 in 6.0 mi Calm Calm - 0.08 in Rain Light Rain
6:53 AM 46.9 °F - 44.1 °F 90% 30.04 in 6.0 mi East 3.5 mph - 0.08 in Rain Light Rain
7:53 AM 46.9 °F - 45.0 °F 93% 30.05 in 5.0 mi Calm Calm - 0.02 in Rain Light Rain
8:43 AM 48.2 °F - 44.6 °F 87% 30.05 in 5.0 mi Calm Calm - 0.02 in Rain Light Rain
8:53 AM 48.0 °F - 45.0 °F 89% 30.05 in 4.0 mi Calm Calm - 0.04 in Rain Light Rain
9:11 AM 48.2 °F - 44.6 °F 87% 30.06 in 4.0 mi Calm Calm - 0.01 in Rain Light Rain
9:29 AM 48.2 °F - 46.4 °F 93% 30.06 in 3.0 mi Calm Calm - 0.03 in Rain Rain
9:53 AM 48.0 °F - 46.0 °F 93% 30.05 in 4.0 mi SE 4.6 mph - 0.05 in Rain Light Rain
10:44 AM 48.2 °F - 46.4 °F 93% 30.06 in 4.0 mi Calm Calm - 0.06 in Rain Light Rain
10:53 AM 48.9 °F - 46.0 °F 90% 30.05 in 5.0 mi Calm Calm - 0.07 in Rain Light Rain
11:53 AM 50.0 °F - 46.9 °F 89% 30.03 in 4.0 mi NW 5.8 mph - 0.02 in Rain Light Rain
12:53 PM 50.0 °F - 46.9 °F 89% 30.00 in 7.0 mi North 3.5 mph - 0.04 in Rain Light Rain
1:26 PM 50.0 °F - 46.4 °F 87% 30.02 in 6.0 mi NNW 8.1 mph - 0.03 in Rain Light Rain
1:53 PM 48.9 °F - 46.0 °F 90% 30.01 in 8.0 mi North 5.8 mph - 0.05 in Rain Rain
2:29 PM 48.2 °F - 44.6 °F 87% 30.03 in 8.0 mi North 8.1 mph - 0.02 in Rain Light Rain
2:37 PM 48.2 °F - 44.6 °F 87% 30.02 in 9.0 mi North 5.8 mph - 0.02 in Rain Light Rain
2:53 PM 48.0 °F - 44.1 °F 86% 30.03 in 7.0 mi North 6.9 mph - 0.03 in Rain Light Rain
3:01 PM 48.2 °F - 44.6 °F 87% 30.03 in 7.0 mi North 5.8 mph - 0.00 in Rain Light Rain
3:13 PM 46.4 °F 45.2 °F 44.6 °F 93% 30.02 in 7.0 mi North 3.5 mph - 0.01 in Rain Light Rain
3:53 PM 46.9 °F - 44.1 °F 90% 30.04 in 5.0 mi North 4.6 mph - 0.02 in Rain Light Rain
4:02 PM 46.4 °F 44.3 °F 44.6 °F 93% 30.04 in 4.0 mi North 4.6 mph - 0.01 in Rain Light Rain
4:33 PM 46.4 °F 42.9 °F 42.8 °F 87% 30.05 in 5.0 mi North 6.9 mph - 0.03 in Rain Light Rain
4:53 PM 46.0 °F 42.5 °F 42.1 °F 86% 30.06 in 10.0 mi North 6.9 mph - 0.03 in Rain Light Rain
5:53 PM 45.0 °F 42.6 °F 41.0 °F 86% 30.05 in 7.0 mi NE 4.6 mph - 0.02 in Rain Light Rain
6:06 PM 44.6 °F - 41.0 °F 87% 30.05 in 10.0 mi Calm Calm - 0.00 in Rain Light Rain
6:21 PM 44.6 °F 40.7 °F 41.0 °F 87% 30.04 in 10.0 mi ESE 6.9 mph - 0.00 in   Overcast
6:53 PM 44.1 °F 41.5 °F 41.0 °F 89% 30.05 in 10.0 mi NNW 4.6 mph - 0.01 in   Overcast
7:00 PM 44.6 °F 39.7 °F 41.0 °F 87% 30.08 in 10.0 mi NW 9.2 mph - N/A   Overcast
7:09 PM 44.6 °F 39.7 °F 41.0 °F 87% 30.09 in 10.0 mi NW 9.2 mph - N/A   Overcast
7:53 PM 44.1 °F 37.7 °F 39.0 °F 82% 30.12 in 10.0 mi NNW 12.7 mph - N/A   Overcast
8:53 PM 42.1 °F 37.1 °F 37.9 °F 85% 30.11 in 10.0 mi North 8.1 mph - N/A   Overcast
9:53 PM 41.0 °F 38.0 °F 37.9 °F 89% 30.12 in 9.0 mi North 4.6 mph - N/A   Overcast
10:40 PM 41.0 °F 37.1 °F 35.6 °F 81% 30.13 in 10.0 mi North 5.8 mph - N/A   Overcast
10:53 PM 41.0 °F 35.2 °F 36.0 °F 82% 30.15 in 10.0 mi NNW 9.2 mph - N/A   Overcast
11:53 PM 39.9 °F 35.1 °F 35.1 °F 83% 30.14 in 10.0 mi North 6.9 mph - N/A   Overcast